Location: Praha
(50.0830°N, 14.4670°E)
Time: 23:56:56
(UTC+01:00)

ISS - Pass Details

Date: 24 November 2020
Orbit: 418 x 420 km, 51.6° (Epoch: 04 December)

Event Time Altitude Azimuth Distance (km) Brightness Sun altitude
Rises 18:07:57 0° 243° (WSW) 2,356 1.5 -18.7°
Reaches altitude 10° 18:10:03 10° 241° (WSW) 1,494 0.1 -19.1°
Maximum altitude 18:13:23 67° 158° (SSE) 456 -3.7 -19.6°
Enters shadow 18:13:25 67° 152° (SSE) 457 -3.8 -19.6°
